カタログに戻る

STARLINK-36428

運用中通信VLEO
NORAD 67362·PAYLOAD·🇺🇸 United States

打ち上げ Jan 9, 2026 から Cape Canaveral Space Force Station

Loading…

次のパス (今後24時間)

TLE

最新Source: CelesTrak SupGP

元期: Sep 14, 2026, 21:46 UTC

1 67362C 26003AE  26257.90743056  .00038851  00000+0  14075-2 0  2571
2 67362  42.9994 238.3540 0001212 257.3384  97.6892 15.27552056    16

AllMySatでSTARLINK-36428をリアルタイム追跡

Download on the App Store